Time,TemperatureF,DewpointF,PressureIn,WindDirection,WindDirectionDegrees,WindSpeedMPH,WindSpeedGustMPH,Humidity,HourlyPrecipIn,Conditions,Clouds,dailyrainin,SoftwareType,DateUTC
2013-04-29 00:01:00,54.9,54.1,30.05,West,260,2.0,-999.0,97,0.00,,,0.00,Wunderground v.1.15,2013-04-29 04:01:00,
2013-04-29 00:02:00,54.9,54.1,30.05,SSW,196,2.0,-999.0,97,0.00,,,0.00,Wunderground v.1.15,2013-04-29 04:02:00,
2013-04-29 00:03:00,54.9,54.1,30.05,SW,218,2.0,-999.0,97,0.00,,,0.00,Wunderground v.1.15,2013-04-29 04:03:00,
2013-04-29 00:05:00,54.9,54.1,30.05,South,186,2.0,-999.0,97,0.00,,,0.00,Wunderground v.1.15,2013-04-29 04:05:00,
2013-04-29 00:10:00,55.0,54.2,30.04,SE,133,2.0,-999.0,97,0.04,,,0.01,Wunderground v.1.15,2013-04-29 04:10:00,
2013-04-29 00:16:00,55.1,54.3,30.04,ESE,107,2.0,-999.0,97,0.04,,,0.01,Wunderground v.1.15,2013-04-29 04:16:00,
2013-04-29 00:22:00,55.1,54.3,30.03,South,171,2.0,-999.0,97,0.06,,,0.02,Wunderground v.1.15,2013-04-29 04:22:00,
2013-04-29 00:27:00,55.2,54.1,30.04,South,177,2.0,-999.0,96,0.06,,,0.02,Wunderground v.1.15,2013-04-29 04:27:00,
2013-04-29 00:33:00,55.2,54.1,30.04,SSE,155,2.0,-999.0,96,0.04,,,0.02,Wunderground v.1.15,2013-04-29 04:33:00,
2013-04-29 00:39:00,55.3,54.2,30.04,SSE,157,1.0,-999.0,96,0.04,,,0.03,Wunderground v.1.15,2013-04-29 04:39:00,
2013-04-29 00:45:00,55.3,54.2,30.04,SSW,208,1.0,-999.0,96,0.04,,,0.03,Wunderground v.1.15,2013-04-29 04:45:00,
2013-04-29 00:51:00,55.3,54.5,30.04,SE,128,1.0,-999.0,97,0.04,,,0.03,Wunderground v.1.15,2013-04-29 04:51:00,
2013-04-29 00:57:00,55.4,54.6,30.03,SE,144,2.0,-999.0,97,0.00,,,0.03,Wunderground v.1.15,2013-04-29 04:57:00,
2013-04-29 01:03:00,55.4,54.6,30.04,SSW,196,2.0,-999.0,97,0.00,,,0.03,Wunderground v.1.15,2013-04-29 05:03:00,
2013-04-29 01:08:00,55.5,54.7,30.04,WSW,238,2.0,-999.0,97,0.00,,,0.04,Wunderground v.1.15,2013-04-29 05:08:00,
2013-04-29 01:14:00,55.6,54.8,30.04,SE,135,2.0,-999.0,97,0.00,,,0.04,Wunderground v.1.15,2013-04-29 05:14:00,
2013-04-29 01:20:00,55.7,54.9,30.04,WSW,239,1.0,-999.0,97,0.00,,,0.04,Wunderground v.1.15,2013-04-29 05:20:00,
2013-04-29 01:26:00,55.7,54.9,30.03,SW,219,1.0,-999.0,97,0.00,,,0.04,Wunderground v.1.15,2013-04-29 05:26:00,
2013-04-29 01:32:00,55.8,55.0,30.03,South,184,1.0,-999.0,97,0.00,,,0.04,Wunderground v.1.15,2013-04-29 05:32:00,
2013-04-29 01:38:00,55.9,55.1,30.03,SW,223,1.0,-999.0,97,0.00,,,0.04,Wunderground v.1.15,2013-04-29 05:38:00,
2013-04-29 01:44:00,55.9,55.1,30.03,WSW,252,1.0,-999.0,97,0.00,,,0.04,Wunderground v.1.15,2013-04-29 05:44:00,
2013-04-29 01:50:00,56.0,55.2,30.03,SSW,213,1.0,-999.0,97,0.00,,,0.04,Wunderground v.1.15,2013-04-29 05:50:00,
2013-04-29 01:56:00,56.1,55.0,30.03,South,188,2.0,-999.0,96,0.00,,,0.04,Wunderground v.1.15,2013-04-29 05:56:00,
2013-04-29 02:01:00,56.2,55.4,30.03,SE,128,1.0,-999.0,97,0.00,,,0.04,Wunderground v.1.15,2013-04-29 06:01:00,
2013-04-29 02:07:00,56.2,55.4,30.03,SW,217,2.0,-999.0,97,0.00,,,0.04,Wunderground v.1.15,2013-04-29 06:07:00,
2013-04-29 02:13:00,56.2,55.4,30.03,South,191,2.0,-999.0,97,0.00,,,0.05,Wunderground v.1.15,2013-04-29 06:13:00,
2013-04-29 02:19:00,56.2,55.4,30.03,South,189,1.0,-999.0,97,0.00,,,0.05,Wunderground v.1.15,2013-04-29 06:19:00,
2013-04-29 02:25:00,56.3,55.5,30.03,WSW,239,1.0,-999.0,97,0.00,,,0.05,Wunderground v.1.15,2013-04-29 06:25:00,
2013-04-29 02:31:00,56.3,55.5,30.02,SW,227,1.0,-999.0,97,0.00,,,0.06,Wunderground v.1.15,2013-04-29 06:31:00,
2013-04-29 02:37:00,56.3,55.5,30.02,WSW,237,1.0,-999.0,97,0.00,,,0.06,Wunderground v.1.15,2013-04-29 06:37:00,
2013-04-29 02:42:00,56.3,55.5,30.02,SW,222,1.0,-999.0,97,0.05,,,0.07,Wunderground v.1.15,2013-04-29 06:42:00,
2013-04-29 02:48:00,56.3,55.5,30.02,WSW,239,0.0,-999.0,97,0.05,,,0.07,Wunderground v.1.15,2013-04-29 06:48:00,
2013-04-29 02:54:00,56.3,55.5,30.01,SW,229,1.0,-999.0,97,0.04,,,0.07,Wunderground v.1.15,2013-04-29 06:54:00,
2013-04-29 03:00:00,56.4,55.6,30.01,SSW,200,1.0,-999.0,97,0.00,,,0.08,Wunderground v.1.15,2013-04-29 07:00:00,
2013-04-29 03:05:00,56.3,55.5,30.01,SSW,200,0.0,-999.0,97,0.15,,,0.10,Wunderground v.1.15,2013-04-29 07:05:00,
2013-04-29 03:11:00,56.3,55.5,30.01,SSW,200,0.0,-999.0,97,0.15,,,0.11,Wunderground v.1.15,2013-04-29 07:11:00,
2013-04-29 03:17:00,56.4,55.6,30.01,SSW,200,1.0,-999.0,97,0.09,,,0.12,Wunderground v.1.15,2013-04-29 07:17:00,
2013-04-29 03:23:00,56.4,55.6,30.01,SW,229,0.0,-999.0,97,0.08,,,0.13,Wunderground v.1.15,2013-04-29 07:23:00,
2013-04-29 03:29:00,56.4,55.6,30.01,SE,128,1.0,-999.0,97,0.09,,,0.14,Wunderground v.1.15,2013-04-29 07:29:00,
2013-04-29 03:35:00,56.4,55.6,30.01,SE,130,1.0,-999.0,97,0.10,,,0.15,Wunderground v.1.15,2013-04-29 07:35:00,
2013-04-29 03:41:00,56.4,55.6,30.01,South,184,0.0,-999.0,97,0.08,,,0.15,Wunderground v.1.15,2013-04-29 07:41:00,
2013-04-29 03:46:00,56.4,55.6,30.02,NW,322,1.0,-999.0,97,0.05,,,0.16,Wunderground v.1.15,2013-04-29 07:46:00,
2013-04-29 03:52:00,56.4,55.6,30.01,NW,325,2.0,-999.0,97,0.69,,,0.21,Wunderground v.1.15,2013-04-29 07:52:00,
2013-04-29 03:58:00,56.4,55.6,30.01,NNW,327,1.0,-999.0,97,0.13,,,0.22,Wunderground v.1.15,2013-04-29 07:58:00,
2013-04-29 04:04:00,56.4,55.6,30.01,NNW,327,0.0,-999.0,97,0.09,,,0.23,Wunderground v.1.15,2013-04-29 08:04:00,
2013-04-29 04:09:00,56.3,55.5,30.01,NNW,327,0.0,-999.0,97,0.07,,,0.23,Wunderground v.1.15,2013-04-29 08:09:00,
2013-04-29 04:15:00,56.3,55.5,30.01,NNW,327,0.0,-999.0,97,0.04,,,0.23,Wunderground v.1.15,2013-04-29 08:15:00,
2013-04-29 04:21:00,56.3,55.5,30.01,NNW,327,0.0,-999.0,97,0.00,,,0.24,Wunderground v.1.15,2013-04-29 08:21:00,
2013-04-29 04:27:00,56.2,55.4,30.01,NNW,327,0.0,-999.0,97,0.00,,,0.24,Wunderground v.1.15,2013-04-29 08:27:00,
2013-04-29 04:33:00,56.2,55.4,30.01,NNW,327,0.0,-999.0,97,0.00,,,0.24,Wunderground v.1.15,2013-04-29 08:33:00,
2013-04-29 04:39:00,56.2,55.4,30.01,NNW,327,0.0,-999.0,97,0.00,,,0.24,Wunderground v.1.15,2013-04-29 08:39:00,
2013-04-29 04:45:00,56.2,55.4,30.01,NNW,327,0.0,-999.0,97,0.00,,,0.25,Wunderground v.1.15,2013-04-29 08:45:00,
2013-04-29 04:50:00,56.1,55.3,30.01,NW,313,1.0,-999.0,97,0.00,,,0.25,Wunderground v.1.15,2013-04-29 08:50:00,
2013-04-29 04:56:00,56.1,55.3,30.01,NW,313,0.0,-999.0,97,0.00,,,0.25,Wunderground v.1.15,2013-04-29 08:56:00,
2013-04-29 05:02:00,56.0,55.2,30.01,NW,313,0.0,-999.0,97,0.00,,,0.26,Wunderground v.1.15,2013-04-29 09:02:00,
2013-04-29 05:08:00,56.0,55.2,30.01,NW,314,1.0,-999.0,97,0.00,,,0.26,Wunderground v.1.15,2013-04-29 09:08:00,
2013-04-29 05:13:00,55.9,54.8,30.01,NNW,338,1.0,-999.0,96,0.00,,,0.26,Wunderground v.1.15,2013-04-29 09:13:00,
2013-04-29 05:19:00,55.6,54.5,30.01,NNE,28,1.0,-999.0,96,0.04,,,0.27,Wunderground v.1.15,2013-04-29 09:19:00,
2013-04-29 05:25:00,55.5,54.4,30.01,NNE,28,0.0,-999.0,96,0.04,,,0.27,Wunderground v.1.15,2013-04-29 09:25:00,
2013-04-29 05:30:00,55.4,54.3,30.01,NNE,28,1.0,-999.0,96,0.04,,,0.27,Wunderground v.1.15,2013-04-29 09:30:00,
2013-04-29 05:36:00,55.3,54.2,30.01,NNE,24,1.0,-999.0,96,0.00,,,0.27,Wunderground v.1.15,2013-04-29 09:36:00,
2013-04-29 05:42:00,55.2,54.1,30.00,NNE,24,0.0,-999.0,96,0.00,,,0.27,Wunderground v.1.15,2013-04-29 09:42:00,
2013-04-29 05:48:00,55.1,54.0,30.00,NNE,27,1.0,-999.0,96,0.00,,,0.28,Wunderground v.1.15,2013-04-29 09:48:00,
2013-04-29 05:53:00,55.0,53.9,30.00,NE,43,2.0,-999.0,96,0.00,,,0.28,Wunderground v.1.15,2013-04-29 09:53:00,
2013-04-29 05:59:00,54.9,54.1,30.00,NE,44,1.0,-999.0,97,0.00,,,0.28,Wunderground v.1.15,2013-04-29 09:59:00,
2013-04-29 06:05:00,54.8,54.0,30.01,NNW,348,1.0,-999.0,97,0.00,,,0.28,Wunderground v.1.15,2013-04-29 10:05:00,
2013-04-29 06:10:00,54.8,54.0,30.01,North,5,1.0,-999.0,97,0.00,,,0.28,Wunderground v.1.15,2013-04-29 10:10:00,
2013-04-29 06:16:00,54.7,53.9,30.01,NNW,346,1.0,-999.0,97,0.00,,,0.29,Wunderground v.1.15,2013-04-29 10:16:00,
2013-04-29 06:22:00,54.5,53.7,30.02,NNW,348,1.0,-999.0,97,0.00,,,0.29,Wunderground v.1.15,2013-04-29 10:22:00,
2013-04-29 06:28:00,54.4,53.6,30.02,North,351,2.0,-999.0,97,0.00,,,0.29,Wunderground v.1.15,2013-04-29 10:28:00,
2013-04-29 06:33:00,54.2,53.4,30.03,NNW,347,2.0,-999.0,97,0.00,,,0.29,Wunderground v.1.15,2013-04-29 10:33:00,
2013-04-29 06:39:00,54.2,53.4,30.03,NNW,348,1.0,-999.0,97,0.00,,,0.29,Wunderground v.1.15,2013-04-29 10:39:00,
2013-04-29 06:45:00,54.1,53.3,30.03,NNW,344,1.0,-999.0,97,0.00,,,0.30,Wunderground v.1.15,2013-04-29 10:45:00,
2013-04-29 06:51:00,54.0,53.2,30.03,NNW,344,1.0,-999.0,97,0.00,,,0.30,Wunderground v.1.15,2013-04-29 10:51:00,
2013-04-29 06:57:00,53.9,53.1,30.03,NNW,344,1.0,-999.0,97,0.05,,,0.31,Wunderground v.1.15,2013-04-29 10:57:00,
2013-04-29 07:03:00,53.9,53.1,30.04,NNW,344,1.0,-999.0,97,0.05,,,0.31,Wunderground v.1.15,2013-04-29 11:03:00,
2013-04-29 07:09:00,53.9,53.1,30.04,NNW,344,0.0,-999.0,97,0.04,,,0.31,Wunderground v.1.15,2013-04-29 11:09:00,
2013-04-29 07:15:00,53.8,53.0,30.04,NNW,345,0.0,-999.0,97,0.00,,,0.31,Wunderground v.1.15,2013-04-29 11:15:00,
2013-04-29 07:20:00,53.9,53.1,30.03,NNW,345,0.0,-999.0,97,0.00,,,0.31,Wunderground v.1.15,2013-04-29 11:20:00,
2013-04-29 07:26:00,53.9,53.1,30.04,NNE,33,1.0,-999.0,97,0.00,,,0.32,Wunderground v.1.15,2013-04-29 11:26:00,
2013-04-29 07:32:00,53.9,53.1,30.04,NE,38,1.0,-999.0,97,0.00,,,0.32,Wunderground v.1.15,2013-04-29 11:32:00,
2013-04-29 07:38:00,53.9,53.1,30.04,NNE,29,1.0,-999.0,97,0.00,,,0.32,Wunderground v.1.15,2013-04-29 11:38:00,
2013-04-29 07:43:00,53.9,53.1,30.03,NNE,30,1.0,-999.0,97,0.00,,,0.32,Wunderground v.1.15,2013-04-29 11:43:00,
2013-04-29 07:49:00,54.0,53.2,30.02,NNE,19,2.0,-999.0,97,0.00,,,0.32,Wunderground v.1.15,2013-04-29 11:49:00,
2013-04-29 07:55:00,54.1,53.3,30.04,North,360,1.0,-999.0,97,0.00,,,0.33,Wunderground v.1.15,2013-04-29 11:55:00,
2013-04-29 08:00:00,54.0,53.2,30.04,North,11,1.0,-999.0,97,0.00,,,0.33,Wunderground v.1.15,2013-04-29 12:00:00,
2013-04-29 08:06:00,54.0,52.9,30.04,North,9,1.0,-999.0,96,0.00,,,0.33,Wunderground v.1.15,2013-04-29 12:06:00,
2013-04-29 08:11:00,54.0,52.9,30.04,North,9,1.0,-999.0,96,0.00,,,0.33,Wunderground v.1.15,2013-04-29 12:11:00,
2013-04-29 08:17:00,54.1,53.3,30.04,North,10,1.0,-999.0,97,0.00,,,0.33,Wunderground v.1.15,2013-04-29 12:17:00,
2013-04-29 08:23:00,54.1,53.0,30.04,North,5,1.0,-999.0,96,0.00,,,0.33,Wunderground v.1.15,2013-04-29 12:23:00,
2013-04-29 08:29:00,54.2,53.4,30.04,North,5,1.0,-999.0,97,0.00,,,0.33,Wunderground v.1.15,2013-04-29 12:29:00,
2013-04-29 08:35:00,54.2,53.1,30.04,North,5,1.0,-999.0,96,0.00,,,0.33,Wunderground v.1.15,2013-04-29 12:35:00,
2013-04-29 08:40:00,54.2,53.4,30.04,NE,38,1.0,-999.0,97,0.00,,,0.33,Wunderground v.1.15,2013-04-29 12:40:00,
2013-04-29 08:46:00,54.3,53.2,30.04,NNE,19,1.0,-999.0,96,0.00,,,0.33,Wunderground v.1.15,2013-04-29 12:46:00,
2013-04-29 08:52:00,54.4,53.3,30.04,NNE,19,1.0,-999.0,96,0.00,,,0.33,Wunderground v.1.15,2013-04-29 12:52:00,
2013-04-29 08:57:00,54.5,53.4,30.04,North,11,1.0,-999.0,96,0.00,,,0.33,Wunderground v.1.15,2013-04-29 12:57:00,
2013-04-29 09:03:00,54.6,53.5,30.04,North,11,1.0,-999.0,96,0.00,,,0.33,Wunderground v.1.15,2013-04-29 13:03:00,
2013-04-29 09:09:00,54.8,53.7,30.04,NNE,20,1.0,-999.0,96,0.00,,,0.33,Wunderground v.1.15,2013-04-29 13:09:00,
2013-04-29 09:15:00,55.0,53.9,30.05,NNE,24,1.0,-999.0,96,0.00,,,0.33,Wunderground v.1.15,2013-04-29 13:15:00,
2013-04-29 09:20:00,55.0,53.6,30.04,NE,34,1.0,-999.0,95,0.00,,,0.33,Wunderground v.1.15,2013-04-29 13:20:00,
2013-04-29 09:26:00,55.1,53.7,30.04,NNE,24,1.0,-999.0,95,0.00,,,0.33,Wunderground v.1.15,2013-04-29 13:26:00,
2013-04-29 09:32:00,55.1,54.0,30.04,North,355,2.0,-999.0,96,0.00,,,0.33,Wunderground v.1.15,2013-04-29 13:32:00,
2013-04-29 09:38:00,55.2,54.1,30.04,NNE,25,2.0,-999.0,96,0.00,,,0.33,Wunderground v.1.15,2013-04-29 13:38:00,
2013-04-29 09:43:00,55.3,54.2,30.04,NNE,16,2.0,-999.0,96,0.00,,,0.33,Wunderground v.1.15,2013-04-29 13:43:00,
2013-04-29 09:49:00,55.5,54.4,30.04,NNW,329,1.0,-999.0,96,0.00,,,0.33,Wunderground v.1.15,2013-04-29 13:49:00,
2013-04-29 09:55:00,55.9,54.8,30.04,NE,55,1.0,-999.0,96,0.00,,,0.33,Wunderground v.1.15,2013-04-29 13:55:00,
2013-04-29 10:01:00,56.2,54.8,30.04,WNW,292,1.0,-999.0,95,0.00,,,0.33,Wunderground v.1.15,2013-04-29 14:01:00,
2013-04-29 10:06:00,56.3,54.9,30.04,NNW,340,1.0,-999.0,95,0.00,,,0.33,Wunderground v.1.15,2013-04-29 14:06:00,
2013-04-29 10:12:00,56.4,54.7,30.04,NNW,344,1.0,-999.0,94,0.00,,,0.33,Wunderground v.1.15,2013-04-29 14:12:00,
2013-04-29 10:18:00,56.4,55.0,30.04,NNW,348,1.0,-999.0,95,0.00,,,0.33,Wunderground v.1.15,2013-04-29 14:18:00,
2013-04-29 10:23:00,56.7,55.3,30.04,NNW,348,0.0,-999.0,95,0.00,,,0.33,Wunderground v.1.15,2013-04-29 14:23:00,
2013-04-29 10:29:00,56.8,55.1,30.04,North,5,0.0,-999.0,94,0.00,,,0.33,Wunderground v.1.15,2013-04-29 14:29:00,
2013-04-29 10:35:00,57.1,55.4,30.04,North,5,0.0,-999.0,94,0.00,,,0.33,Wunderground v.1.15,2013-04-29 14:35:00,
2013-04-29 10:41:00,57.1,55.4,30.04,North,5,1.0,-999.0,94,0.00,,,0.33,Wunderground v.1.15,2013-04-29 14:41:00,
2013-04-29 10:46:00,57.3,55.9,30.04,North,5,0.0,-999.0,95,0.00,,,0.33,Wunderground v.1.15,2013-04-29 14:46:00,
2013-04-29 10:52:00,57.8,56.1,30.04,North,5,0.0,-999.0,94,0.00,,,0.33,Wunderground v.1.15,2013-04-29 14:52:00,
2013-04-29 10:58:00,58.1,56.4,30.04,NE,38,1.0,-999.0,94,0.00,,,0.33,Wunderground v.1.15,2013-04-29 14:58:00,
2013-04-29 11:04:00,58.4,56.4,30.04,NNE,30,1.0,-999.0,93,0.00,,,0.33,Wunderground v.1.15,2013-04-29 15:04:00,
2013-04-29 11:09:00,58.7,56.4,30.04,ENE,58,0.0,-999.0,92,0.00,,,0.33,Wunderground v.1.15,2013-04-29 15:09:00,
2013-04-29 11:15:00,59.1,56.5,30.04,ENE,65,0.0,-999.0,91,0.00,,,0.33,Wunderground v.1.15,2013-04-29 15:15:00,
2013-04-29 11:21:00,59.1,56.5,30.04,NNE,33,1.0,-999.0,91,0.00,,,0.33,Wunderground v.1.15,2013-04-29 15:21:00,
2013-04-29 11:26:00,58.8,56.5,30.04,NE,41,1.0,-999.0,92,0.00,,,0.33,Wunderground v.1.15,2013-04-29 15:26:00,
2013-04-29 11:32:00,58.8,56.8,30.04,North,5,1.0,-999.0,93,0.00,,,0.33,Wunderground v.1.15,2013-04-29 15:32:00,
2013-04-29 11:38:00,58.8,56.5,30.04,NNE,26,2.0,-999.0,92,0.00,,,0.33,Wunderground v.1.15,2013-04-29 15:38:00,
2013-04-29 11:44:00,58.7,56.4,30.04,NE,37,2.0,-999.0,92,0.00,,,0.33,Wunderground v.1.15,2013-04-29 15:44:00,
2013-04-29 11:49:00,58.7,56.7,30.04,NNE,20,3.0,-999.0,93,0.00,,,0.33,Wunderground v.1.15,2013-04-29 15:49:00,
2013-04-29 11:55:00,58.7,56.7,30.04,NNE,22,3.0,-999.0,93,0.00,,,0.33,Wunderground v.1.15,2013-04-29 15:55:00,
2013-04-29 12:01:00,58.8,57.1,30.04,NE,40,3.0,-999.0,94,0.00,,,0.33,Wunderground v.1.15,2013-04-29 16:01:00,
2013-04-29 12:07:00,58.8,56.5,30.04,NNE,26,2.0,-999.0,92,0.00,,,0.33,Wunderground v.1.15,2013-04-29 16:07:00,
2013-04-29 12:13:00,59.1,56.8,30.04,NE,43,2.0,-999.0,92,0.00,,,0.33,Wunderground v.1.15,2013-04-29 16:13:00,
2013-04-29 12:19:00,59.3,56.7,30.04,NNE,19,2.0,-999.0,91,0.00,,,0.33,Wunderground v.1.15,2013-04-29 16:19:00,
2013-04-29 12:25:00,59.4,56.8,30.04,NE,42,2.0,-999.0,91,0.00,,,0.33,Wunderground v.1.15,2013-04-29 16:25:00,
2013-04-29 12:30:00,59.5,57.2,30.04,NNW,338,2.0,-999.0,92,0.00,,,0.33,Wunderground v.1.15,2013-04-29 16:30:00,
2013-04-29 12:36:00,59.4,57.1,30.04,North,355,3.0,-999.0,92,0.00,,,0.33,Wunderground v.1.15,2013-04-29 16:36:00,
2013-04-29 12:42:00,59.5,57.5,30.04,North,350,3.0,-999.0,93,0.00,,,0.33,Wunderground v.1.15,2013-04-29 16:42:00,
2013-04-29 12:48:00,59.8,57.2,30.04,NNE,19,2.0,-999.0,91,0.00,,,0.33,Wunderground v.1.15,2013-04-29 16:48:00,
2013-04-29 12:53:00,59.7,56.5,30.04,NNE,31,1.0,-999.0,89,0.00,,,0.33,Wunderground v.1.15,2013-04-29 16:53:00,
2013-04-29 12:59:00,59.9,57.3,30.04,NNE,30,1.0,-999.0,91,0.00,,,0.33,Wunderground v.1.15,2013-04-29 16:59:00,
2013-04-29 13:05:00,60.4,57.5,30.04,North,11,1.0,-999.0,90,0.00,,,0.33,Wunderground v.1.15,2013-04-29 17:05:00,
2013-04-29 13:11:00,60.7,57.4,30.04,North,11,1.0,-999.0,89,0.00,,,0.33,Wunderground v.1.15,2013-04-29 17:11:00,
2013-04-29 13:17:00,61.4,58.1,30.03,North,355,1.0,-999.0,89,0.00,,,0.33,Wunderground v.1.15,2013-04-29 17:17:00,
2013-04-29 13:23:00,61.8,58.8,30.03,NNW,346,2.0,-999.0,90,0.00,,,0.33,Wunderground v.1.15,2013-04-29 17:23:00,
2013-04-29 13:29:00,62.5,59.5,30.03,NW,319,1.0,-999.0,90,0.00,,,0.33,Wunderground v.1.15,2013-04-29 17:29:00,
2013-04-29 13:34:00,62.6,59.0,30.03,NW,316,2.0,-999.0,88,0.00,,,0.33,Wunderground v.1.15,2013-04-29 17:34:00,
2013-04-29 13:40:00,62.8,58.5,30.02,North,355,2.0,-999.0,86,0.00,,,0.33,Wunderground v.1.15,2013-04-29 17:40:00,
2013-04-29 13:46:00,63.2,58.6,30.02,North,360,1.0,-999.0,85,0.00,,,0.33,Wunderground v.1.15,2013-04-29 17:46:00,
2013-04-29 13:52:00,63.4,58.5,30.02,North,360,1.0,-999.0,84,0.00,,,0.33,Wunderground v.1.15,2013-04-29 17:52:00,
2013-04-29 13:57:00,63.4,59.1,30.02,NNE,27,2.0,-999.0,86,0.00,,,0.33,Wunderground v.1.15,2013-04-29 17:57:00,
2013-04-29 14:03:00,62.9,58.6,30.02,North,11,2.0,-999.0,86,0.00,,,0.33,Wunderground v.1.15,2013-04-29 18:03:00,
2013-04-29 14:09:00,62.4,58.2,30.02,NNE,28,2.0,-999.0,86,0.00,,,0.33,Wunderground v.1.15,2013-04-29 18:09:00,
2013-04-29 14:15:00,62.6,58.7,30.01,NNE,28,2.0,-999.0,87,0.00,,,0.33,Wunderground v.1.15,2013-04-29 18:15:00,
2013-04-29 14:21:00,63.1,58.8,30.01,North,355,1.0,-999.0,86,0.00,,,0.33,Wunderground v.1.15,2013-04-29 18:21:00,
2013-04-29 14:27:00,64.0,59.1,30.01,SE,141,0.0,-999.0,84,0.00,,,0.33,Wunderground v.1.15,2013-04-29 18:27:00,
2013-04-29 14:33:00,65.2,60.2,30.01,SSE,160,1.0,-999.0,84,0.00,,,0.33,Wunderground v.1.15,2013-04-29 18:33:00,
2013-04-29 14:38:00,66.1,59.7,30.01,NNE,30,1.0,-999.0,80,0.00,,,0.33,Wunderground v.1.15,2013-04-29 18:38:00,
2013-04-29 14:44:00,66.0,60.3,30.00,NW,320,2.0,-999.0,82,0.00,,,0.33,Wunderground v.1.15,2013-04-29 18:44:00,
2013-04-29 14:50:00,65.9,60.6,30.00,South,170,1.0,-999.0,83,0.00,,,0.33,Wunderground v.1.15,2013-04-29 18:50:00,
2013-04-29 14:56:00,66.4,60.0,30.00,East,81,1.0,-999.0,80,0.00,,,0.33,Wunderground v.1.15,2013-04-29 18:56:00,
2013-04-29 15:01:00,66.9,60.2,30.00,ESE,103,1.0,-999.0,79,0.00,,,0.33,Wunderground v.1.15,2013-04-29 19:01:00,
2013-04-29 15:06:00,67.0,59.9,30.00,SE,127,1.0,-999.0,78,0.00,,,0.33,Wunderground v.1.15,2013-04-29 19:06:00,
2013-04-29 15:12:00,67.4,61.0,29.99,NNE,28,0.0,-999.0,80,0.00,,,0.33,Wunderground v.1.15,2013-04-29 19:12:00,
2013-04-29 15:18:00,67.2,59.7,29.99,North,355,1.0,-999.0,77,0.00,,,0.33,Wunderground v.1.15,2013-04-29 19:18:00,
2013-04-29 15:24:00,67.3,60.2,29.99,NNW,345,1.0,-999.0,78,0.00,,,0.33,Wunderground v.1.15,2013-04-29 19:24:00,
2013-04-29 15:29:00,68.3,59.3,29.99,SE,136,2.0,-999.0,73,0.00,,,0.33,Wunderground v.1.15,2013-04-29 19:29:00,
2013-04-29 15:35:00,69.1,60.5,29.99,WNW,288,2.0,-999.0,74,0.00,,,0.33,Wunderground v.1.15,2013-04-29 19:35:00,
2013-04-29 15:41:00,68.6,60.0,29.98,NW,304,2.0,-999.0,74,0.00,,,0.33,Wunderground v.1.15,2013-04-29 19:41:00,
2013-04-29 15:47:00,68.1,59.5,29.98,West,261,2.0,-999.0,74,0.00,,,0.33,Wunderground v.1.15,2013-04-29 19:47:00,
2013-04-29 15:52:00,67.4,58.8,29.98,SW,233,2.0,-999.0,74,0.00,,,0.33,Wunderground v.1.15,2013-04-29 19:52:00,
2013-04-29 15:58:00,67.6,58.6,29.97,SSW,205,2.0,-999.0,73,0.00,,,0.33,Wunderground v.1.15,2013-04-29 19:58:00,
2013-04-29 16:04:00,67.6,59.0,29.97,South,190,2.0,-999.0,74,0.00,,,0.33,Wunderground v.1.15,2013-04-29 20:04:00,
2013-04-29 16:09:00,68.0,59.4,29.97,ESE,114,1.0,-999.0,74,0.00,,,0.33,Wunderground v.1.15,2013-04-29 20:09:00,
2013-04-29 16:15:00,68.2,59.2,29.97,South,190,1.0,-999.0,73,0.00,,,0.33,Wunderground v.1.15,2013-04-29 20:15:00,
2013-04-29 16:21:00,67.8,60.3,29.97,NNE,32,1.0,-999.0,77,0.00,,,0.33,Wunderground v.1.15,2013-04-29 20:21:00,
2013-04-29 16:27:00,67.0,60.3,29.97,North,360,2.0,-999.0,79,0.00,,,0.33,Wunderground v.1.15,2013-04-29 20:27:00,
2013-04-29 16:32:00,66.6,59.9,29.97,NNE,30,2.0,-999.0,79,0.00,,,0.33,Wunderground v.1.15,2013-04-29 20:32:00,
2013-04-29 16:38:00,66.5,60.5,29.97,NNE,15,2.0,-999.0,81,0.00,,,0.33,Wunderground v.1.15,2013-04-29 20:38:00,
2013-04-29 16:44:00,66.7,60.0,29.96,North,9,2.0,-999.0,79,0.00,,,0.33,Wunderground v.1.15,2013-04-29 20:44:00,
2013-04-29 16:50:00,66.7,60.3,29.96,ENE,59,2.0,-999.0,80,0.00,,,0.33,Wunderground v.1.15,2013-04-29 20:50:00,
2013-04-29 16:56:00,66.5,60.1,29.97,NNE,32,2.0,-999.0,80,0.00,,,0.33,Wunderground v.1.15,2013-04-29 20:56:00,
2013-04-29 17:02:00,66.4,60.0,29.96,NNE,13,3.0,-999.0,80,0.00,,,0.33,Wunderground v.1.15,2013-04-29 21:02:00,
2013-04-29 17:08:00,66.6,59.9,29.96,NNE,26,2.0,-999.0,79,0.00,,,0.33,Wunderground v.1.15,2013-04-29 21:08:00,
2013-04-29 17:13:00,67.0,60.6,29.97,NE,40,2.0,-999.0,80,0.00,,,0.33,Wunderground v.1.15,2013-04-29 21:13:00,
2013-04-29 17:19:00,67.1,60.7,29.97,ENE,69,2.0,-999.0,80,0.00,,,0.33,Wunderground v.1.15,2013-04-29 21:19:00,
2013-04-29 17:25:00,67.5,60.0,29.97,NNE,29,2.0,-999.0,77,0.00,,,0.33,Wunderground v.1.15,2013-04-29 21:25:00,
2013-04-29 17:31:00,67.9,60.4,29.96,NNE,30,2.0,-999.0,77,0.00,,,0.33,Wunderground v.1.15,2013-04-29 21:31:00,
2013-04-29 17:36:00,68.1,60.6,29.96,NNE,23,2.0,-999.0,77,0.00,,,0.33,Wunderground v.1.15,2013-04-29 21:36:00,
2013-04-29 17:42:00,67.9,60.1,29.96,NNE,13,1.0,-999.0,76,0.00,,,0.33,Wunderground v.1.15,2013-04-29 21:42:00,
2013-04-29 17:48:00,67.9,60.8,29.96,North,5,2.0,-999.0,78,0.00,,,0.33,Wunderground v.1.15,2013-04-29 21:48:00,
2013-04-29 17:54:00,68.1,60.6,29.96,North,350,2.0,-999.0,77,0.00,,,0.33,Wunderground v.1.15,2013-04-29 21:54:00,
2013-04-29 18:00:00,68.9,61.4,29.96,NE,46,2.0,-999.0,77,0.00,,,0.33,Wunderground v.1.15,2013-04-29 22:00:00,
2013-04-29 18:06:00,69.9,62.0,29.96,SW,225,2.0,-999.0,76,0.00,,,0.33,Wunderground v.1.15,2013-04-29 22:06:00,
2013-04-29 18:12:00,70.6,61.1,29.96,East,92,1.0,-999.0,72,0.00,,,0.33,Wunderground v.1.15,2013-04-29 22:12:00,
2013-04-29 18:17:00,70.4,60.5,29.96,NNE,16,2.0,-999.0,71,0.00,,,0.33,Wunderground v.1.15,2013-04-29 22:17:00,
2013-04-29 18:23:00,70.0,60.6,29.96,ENE,74,2.0,-999.0,72,0.00,,,0.33,Wunderground v.1.15,2013-04-29 22:23:00,
2013-04-29 18:29:00,69.0,60.0,29.96,ENE,62,3.0,-999.0,73,0.00,,,0.33,Wunderground v.1.15,2013-04-29 22:29:00,
2013-04-29 18:35:00,68.6,60.4,29.96,ENE,66,2.0,-999.0,75,0.00,,,0.33,Wunderground v.1.15,2013-04-29 22:35:00,
2013-04-29 18:40:00,68.7,60.8,29.96,ENE,65,1.0,-999.0,76,0.00,,,0.33,Wunderground v.1.15,2013-04-29 22:40:00,
2013-04-29 18:46:00,68.9,61.0,29.96,East,88,1.0,-999.0,76,0.00,,,0.33,Wunderground v.1.15,2013-04-29 22:46:00,
2013-04-29 18:52:00,68.5,60.6,29.96,NE,39,1.0,-999.0,76,0.00,,,0.33,Wunderground v.1.15,2013-04-29 22:52:00,
2013-04-29 18:58:00,67.8,60.0,29.97,NE,53,1.0,-999.0,76,0.00,,,0.33,Wunderground v.1.15,2013-04-29 22:58:00,
2013-04-29 19:04:00,67.4,60.3,29.97,NE,36,1.0,-999.0,78,0.00,,,0.33,Wunderground v.1.15,2013-04-29 23:04:00,
2013-04-29 19:10:00,66.6,59.9,29.97,NNE,30,2.0,-999.0,79,0.00,,,0.33,Wunderground v.1.15,2013-04-29 23:10:00,
2013-04-29 19:16:00,66.2,60.2,29.97,NNE,20,2.0,-999.0,81,0.00,,,0.33,Wunderground v.1.15,2013-04-29 23:16:00,
2013-04-29 19:21:00,65.8,60.2,29.97,NNE,30,2.0,-999.0,82,0.00,,,0.33,Wunderground v.1.15,2013-04-29 23:21:00,
2013-04-29 19:27:00,65.5,59.9,29.97,ENE,78,1.0,-999.0,82,0.00,,,0.33,Wunderground v.1.15,2013-04-29 23:27:00,
2013-04-29 19:33:00,65.3,59.7,29.97,ESE,108,1.0,-999.0,82,0.00,,,0.33,Wunderground v.1.15,2013-04-29 23:33:00,
2013-04-29 19:39:00,65.1,59.8,29.97,ESE,111,1.0,-999.0,83,0.00,,,0.33,Wunderground v.1.15,2013-04-29 23:39:00,
2013-04-29 19:44:00,64.8,59.5,29.97,East,88,0.0,-999.0,83,0.00,,,0.33,Wunderground v.1.15,2013-04-29 23:44:00,
2013-04-29 19:50:00,64.6,59.7,29.98,East,96,0.0,-999.0,84,0.00,,,0.33,Wunderground v.1.15,2013-04-29 23:50:00,
2013-04-29 19:56:00,64.4,59.5,29.98,East,93,0.0,-999.0,84,0.00,,,0.33,Wunderground v.1.15,2013-04-29 23:56:00,
2013-04-29 20:02:00,64.1,59.5,29.97,East,93,0.0,-999.0,85,0.00,,,0.33,Wunderground v.1.15,2013-04-30 00:02:00,
2013-04-29 20:08:00,63.8,59.5,29.98,East,93,0.0,-999.0,86,0.00,,,0.33,Wunderground v.1.15,2013-04-30 00:08:00,
2013-04-29 20:14:00,63.5,59.9,29.98,East,93,0.0,-999.0,88,0.00,,,0.33,Wunderground v.1.15,2013-04-30 00:14:00,
2013-04-29 20:20:00,63.1,59.2,29.98,East,93,0.0,-999.0,87,0.00,,,0.33,Wunderground v.1.15,2013-04-30 00:20:00,
2013-04-29 20:25:00,62.8,59.2,29.99,East,93,0.0,-999.0,88,0.00,,,0.33,Wunderground v.1.15,2013-04-30 00:25:00,
2013-04-29 20:31:00,62.4,59.1,29.99,East,93,0.0,-999.0,89,0.00,,,0.33,Wunderground v.1.15,2013-04-30 00:31:00,
2013-04-29 20:37:00,61.8,58.8,29.99,East,93,0.0,-999.0,90,0.00,,,0.33,Wunderground v.1.15,2013-04-30 00:37:00,
2013-04-29 20:43:00,61.4,58.7,29.99,East,93,0.0,-999.0,91,0.00,,,0.33,Wunderground v.1.15,2013-04-30 00:43:00,
2013-04-29 20:49:00,61.1,58.5,29.99,East,93,0.0,-999.0,91,0.00,,,0.33,Wunderground v.1.15,2013-04-30 00:49:00,
2013-04-29 20:55:00,60.8,58.2,29.99,East,93,0.0,-999.0,91,0.00,,,0.33,Wunderground v.1.15,2013-04-30 00:55:00,
2013-04-29 21:01:00,60.4,57.8,29.99,East,93,0.0,-999.0,91,0.00,,,0.33,Wunderground v.1.15,2013-04-30 01:01:00,
2013-04-29 21:07:00,60.1,57.8,29.99,East,93,0.0,-999.0,92,0.00,,,0.33,Wunderground v.1.15,2013-04-30 01:07:00,
2013-04-29 21:12:00,59.8,57.8,29.99,East,93,0.0,-999.0,93,0.00,,,0.33,Wunderground v.1.15,2013-04-30 01:12:00,
2013-04-29 21:18:00,59.7,57.7,29.99,East,93,0.0,-999.0,93,0.00,,,0.33,Wunderground v.1.15,2013-04-30 01:18:00,
2013-04-29 21:24:00,59.6,57.6,29.99,East,93,0.0,-999.0,93,0.00,,,0.33,Wunderground v.1.15,2013-04-30 01:24:00,
2013-04-29 21:30:00,59.4,57.7,30.00,East,93,0.0,-999.0,94,0.00,,,0.33,Wunderground v.1.15,2013-04-30 01:30:00,
2013-04-29 21:35:00,59.2,57.2,30.00,East,93,0.0,-999.0,93,0.00,,,0.33,Wunderground v.1.15,2013-04-30 01:35:00,
2013-04-29 21:41:00,58.9,56.9,30.00,East,93,0.0,-999.0,93,0.00,,,0.33,Wunderground v.1.15,2013-04-30 01:41:00,
2013-04-29 21:47:00,58.7,57.0,30.00,East,93,0.0,-999.0,94,0.00,,,0.33,Wunderground v.1.15,2013-04-30 01:47:00,
2013-04-29 21:53:00,58.5,56.8,30.00,East,93,0.0,-999.0,94,0.00,,,0.33,Wunderground v.1.15,2013-04-30 01:53:00,
2013-04-29 21:59:00,58.4,56.7,30.00,East,93,0.0,-999.0,94,0.00,,,0.33,Wunderground v.1.15,2013-04-30 01:59:00,
2013-04-29 22:05:00,58.3,56.6,30.00,East,93,0.0,-999.0,94,0.00,,,0.33,Wunderground v.1.15,2013-04-30 02:05:00,
2013-04-29 22:11:00,58.1,56.4,30.00,East,93,0.0,-999.0,94,0.00,,,0.33,Wunderground v.1.15,2013-04-30 02:11:00,
2013-04-29 22:16:00,57.9,56.2,30.01,East,93,0.0,-999.0,94,0.00,,,0.33,Wunderground v.1.15,2013-04-30 02:16:00,
2013-04-29 22:22:00,57.7,56.0,30.01,East,93,0.0,-999.0,94,0.00,,,0.33,Wunderground v.1.15,2013-04-30 02:22:00,
2013-04-29 22:28:00,57.6,56.2,30.01,East,93,0.0,-999.0,95,0.00,,,0.33,Wunderground v.1.15,2013-04-30 02:28:00,
2013-04-29 22:34:00,57.5,56.1,30.01,East,93,0.0,-999.0,95,0.00,,,0.33,Wunderground v.1.15,2013-04-30 02:34:00,
2013-04-29 22:40:00,57.5,56.1,30.01,East,93,0.0,-999.0,95,0.00,,,0.33,Wunderground v.1.15,2013-04-30 02:40:00,
2013-04-29 22:46:00,57.3,55.9,30.01,East,93,0.0,-999.0,95,0.00,,,0.33,Wunderground v.1.15,2013-04-30 02:46:00,
2013-04-29 22:52:00,57.2,55.8,30.01,East,93,0.0,-999.0,95,0.00,,,0.33,Wunderground v.1.15,2013-04-30 02:52:00,
2013-04-29 22:58:00,57.0,55.6,30.01,East,93,0.0,-999.0,95,0.00,,,0.33,Wunderground v.1.15,2013-04-30 02:58:00,
2013-04-29 23:03:00,56.8,55.4,30.01,East,93,0.0,-999.0,95,0.00,,,0.33,Wunderground v.1.15,2013-04-30 03:03:00,
2013-04-29 23:09:00,56.6,55.2,30.01,East,93,0.0,-999.0,95,0.00,,,0.33,Wunderground v.1.15,2013-04-30 03:09:00,
2013-04-29 23:15:00,56.5,55.1,30.01,East,93,0.0,-999.0,95,0.00,,,0.33,Wunderground v.1.15,2013-04-30 03:15:00,
2013-04-29 23:20:00,56.5,55.4,30.01,East,93,0.0,-999.0,96,0.00,,,0.33,Wunderground v.1.15,2013-04-30 03:20:00,
2013-04-29 23:26:00,56.4,55.0,30.01,East,93,0.0,-999.0,95,0.00,,,0.33,Wunderground v.1.15,2013-04-30 03:26:00,
2013-04-29 23:32:00,56.2,54.8,30.01,East,93,0.0,-999.0,95,0.00,,,0.33,Wunderground v.1.15,2013-04-30 03:32:00,
2013-04-29 23:38:00,56.2,55.1,30.01,East,93,0.0,-999.0,96,0.00,,,0.33,Wunderground v.1.15,2013-04-30 03:38:00,
2013-04-29 23:43:00,56.1,55.0,30.01,East,93,0.0,-999.0,96,0.00,,,0.33,Wunderground v.1.15,2013-04-30 03:43:00,
2013-04-29 23:49:00,56.0,54.9,30.01,East,93,0.0,-999.0,96,0.00,,,0.33,Wunderground v.1.15,2013-04-30 03:49:00,
2013-04-29 23:55:00,55.9,54.8,30.01,East,93,0.0,-999.0,96,0.00,,,0.33,Wunderground v.1.15,2013-04-30 03:55:00,